{"data":{"norad_id":44204,"epoch":"2026-05-12T18:25:31.496160Z","epoch_age_seconds":1135854,"freshness":"AGED","line1":"1 44204U 19023A   26132.76772565 -.00000227  00000+0  00000+0 0  9998","line2":"2 44204  58.6468  38.0171 0023856 234.3090 349.8662  1.00250503  6851","mean_motion":1.00250503,"eccentricity":0.0023856,"inclination_deg":58.6468,"raan_deg":38.0171,"arg_perigee_deg":234.309,"mean_anomaly_deg":349.8662,"bstar":0,"rev_number":685,"period_min":1436.4017704729,"perigee_km":35691.959713918,"apogee_km":35893.164553625,"semimajor_km":42170.699133772,"source":"CELESTRAK","updated_at":"2026-05-25T13:38:24.221379Z"}}